Southend-On-Sea, United Kingdom

9:59 PM GMT on November 17, 2018 (GMT +0000)
Southend

Weather History for EGMC - November, 2018

Change the Weather History Date:

Friday, November 9, 2018

  Actual Average Record
Temperature  
Mean Temperature 50 °F -  
Max Temperature 55 °F 48 °F 62 °F (2017)
Min Temperature 46 °F 39 °F 33 °F (2006)
Degree Days  
Heating Degree Days 14    
Moisture  
Dew Point 46 °F    
Average Humidity 81    
Maximum Humidity 93    
Minimum Humidity 67    
Precipitation  
Precipitation 0.00 in - - ()
Sea Level Pressure  
Sea Level Pressure 29.65 in    
Wind  
Wind Speed 11 mph ()    
Max Wind Speed 24 mph    
Max Gust Speed 37 mph    
Visibility 6.0 miles    
Events Rain    
Averages and records for this station are not official NWS values.
T = Trace of Precipitation, MM = Missing Value Source: Averaged Metar Reports

Daily Weather History Graph

Daily Weather History Graph

Search for Another Location

Airport or City:

Astronomy

Nov. 09, 2018 Rise Set
Actual Time 7:04 AM GMT 4:16 PM GMT
Civil Twilight 6:28 AM GMT 4:52 PM GMT
Nautical Twilight 5:48 AM GMT 5:32 PM GMT
Astronomical Twilight 5:09 AM GMT 6:11 PM GMT
Moon 8:43 AM GMT (11/9) 5:45 PM GMT (11/9)
Length of Visible Light 10h 24m
Length of Day
9h 11m
Waxing Crescent, 4% of the Moon is Illuminated
Nov 9
Waxing Crescent
Nov 15
First Quarter
Nov 23
Full
Nov 30
Last Quarter
Dec 7
New

Hourly Weather History & Observations

Time (GMT) Temp. Windchill Dew Point Humidity Pressure Visibility Wind Dir Wind Speed Gust Speed Precip Events Conditions
12:50 AM 46.4 °F 42.4 °F 42.8 °F 87% 29.89 in - ESE 8.1 mph - N/A   Clear
1:50 AM 46.4 °F 42.4 °F 42.8 °F 87% 29.86 in - ESE 8.1 mph - N/A   Clear
2:50 AM 46.4 °F 42.4 °F 42.8 °F 87% 29.86 in - ESE 8.1 mph - N/A   Clear
3:50 AM 46.4 °F 42.4 °F 42.8 °F 87% 29.86 in - ESE 8.1 mph - N/A   Clear
4:50 AM 46.4 °F 41.9 °F 42.8 °F 87% 29.83 in - SE 9.2 mph - N/A   Clear
5:20 AM 48.2 °F - 44.6 °F 87% 29.80 in - SE 10.4 mph - N/A   Clear
5:50 AM 48.2 °F - 44.6 °F 87% 29.80 in - SE 10.4 mph - N/A   Clear
6:20 AM 50.0 °F - 46.4 °F 87% 29.80 in - SE 8.1 mph - N/A   Clear
6:50 AM 48.2 °F - 44.6 °F 87% 29.80 in - SE 8.1 mph - N/A   Clear
7:20 AM 48.2 °F - 46.4 °F 93% 29.80 in - SSE 11.5 mph - N/A   Clear
7:50 AM 50.0 °F - 46.4 °F 87% 29.77 in - SE 12.7 mph - N/A   Clear
8:20 AM 50.0 °F - 46.4 °F 87% 29.77 in 6.2 mi SE 8.1 mph - N/A   Partly Cloudy
8:50 AM 48.2 °F - 44.6 °F 87% 29.77 in 6.2 mi ESE 5.8 mph - N/A   Partly Cloudy
9:20 AM 50.0 °F - 46.4 °F 87% 29.77 in 6.2 mi SE 6.9 mph - N/A   Partly Cloudy
9:50 AM 50.0 °F - 46.4 °F 87% 29.74 in 6.2 mi SE 8.1 mph - N/A   Scattered Clouds
10:20 AM 50.0 °F - 46.4 °F 87% 29.74 in 6.2 mi SE 10.4 mph - N/A   Scattered Clouds
10:50 AM 53.6 °F - 48.2 °F 82% 29.71 in 6.2 mi SSE 12.7 mph - N/A   Scattered Clouds
11:20 AM 53.6 °F - 48.2 °F 82% 29.71 in 6.2 mi SSE 13.8 mph - N/A   Mostly Cloudy
11:50 AM 53.6 °F - 48.2 °F 82% 29.68 in 6.2 mi SSE 16.1 mph - N/A   Mostly Cloudy
12:20 PM 53.6 °F - 48.2 °F 82% 29.68 in 6.2 mi SSE 13.8 mph - N/A   Mostly Cloudy
12:50 PM 55.4 °F - 48.2 °F 77% 29.68 in 6.2 mi South 16.1 mph 28.8 mph N/A   Mostly Cloudy
1:20 PM 55.4 °F - 50.0 °F 82% 29.65 in 6.2 mi South 16.1 mph - N/A   Mostly Cloudy
1:50 PM 55.4 °F - 50.0 °F 82% 29.65 in 6.2 mi South 17.3 mph - N/A   Scattered Clouds
2:20 PM 55.4 °F - 48.2 °F 77% 29.65 in 6.2 mi South 15.0 mph - N/A   Partly Cloudy
2:50 PM 55.4 °F - 46.4 °F 72% 29.62 in 6.2 mi South 17.3 mph - N/A   Partly Cloudy
3:20 PM 53.6 °F - 44.6 °F 72% 29.62 in 6.2 mi South 15.0 mph - N/A   Partly Cloudy
3:50 PM 55.4 °F - 44.6 °F 67% 29.62 in 6.2 mi South 16.1 mph - N/A   Partly Cloudy
4:20 PM 53.6 °F - 44.6 °F 72% 29.59 in - South 13.8 mph - N/A   Clear
4:50 PM 51.8 °F - 44.6 °F 76% 29.59 in - SSE 15.0 mph - N/A   Clear
5:20 PM 51.8 °F - 42.8 °F 71% 29.59 in - South 15.0 mph - N/A   Clear
5:50 PM 51.8 °F - 42.8 °F 71% 29.56 in - South 17.3 mph - N/A   Clear
6:20 PM 51.8 °F - 42.8 °F 71% 29.53 in - SSE 16.1 mph - N/A   Clear
6:50 PM 51.8 °F - 44.6 °F 76% 29.53 in - SSE 16.1 mph - N/A   Clear
7:20 PM 53.6 °F - 44.6 °F 72% 29.50 in 6.2 mi SSE 18.4 mph - N/A   Partly Cloudy
7:50 PM 55.4 °F - 48.2 °F 77% 29.47 in 6.2 mi SSE 23.0 mph - N/A   Scattered Clouds
8:20 PM 53.6 °F - 46.4 °F 77% 29.47 in 5.6 mi SSE 21.9 mph - N/A Rain Light Rain
8:50 PM 53.6 °F - 46.4 °F 77% 29.44 in 5.6 mi South 24.2 mph 36.8 mph N/A Rain Light Rain
9:20 PM 53.6 °F - 46.4 °F 77% 29.44 in 5.0 mi South 24.2 mph - N/A Rain Light Rain
9:50 PM 51.8 °F - 46.4 °F 82% 29.44 in 5.6 mi South 17.3 mph - N/A Rain Light Rain
10:20 PM 51.8 °F - 46.4 °F 82% 29.44 in 5.6 mi South 23.0 mph 34.5 mph N/A Rain Light Rain
10:50 PM 51.8 °F - 48.2 °F 88% 29.39 in 5.6 mi South 16.1 mph 28.8 mph N/A Rain Light Rain
11:20 PM 51.8 °F - 48.2 °F 88% 29.36 in 5.6 mi South 18.4 mph - N/A Rain Light Rain